Location: Asheville, NC
(35.6000°N, 82.5500°W)
Time: 23:06:39

ISS - Pass Details

Date: 14 March 2018
Orbit: 403 x 406 km, 51.6° (Epoch: 21 March)

Event Time Altitude Azimuth Distance (km) Brightness Sun altitude
Exits shadow 06:30:27 - 335° (NNW) 2,031 -0.4 -15.4°
Reaches altitude 10° 06:33:24 10° 14° (NNE) 1,459 -0.7 -14.8°
Maximum altitude 06:33:51 10° 22° (NNE) 1,447 -0.6 -14.7°
Drops below altitude 10° 06:34:18 10° 30° (NNE) 1,459 -0.5 -14.6°
Sets 06:38:11 0° 77° (ENE) 2,314 2.0 -13.9°
